Weather History for CWXG - October, 2013

Change the Weather History Date:

Wednesday, October 23, 2013

  Actual Average Record
Temperature  
Mean Temperature 34 °F -  
Max Temperature 42 °F - - ()
Min Temperature 21 °F - - ()
Degree Days  
Heating Degree Days 32    
Moisture  
Dew Point 30 °F    
Average Humidity 87    
Maximum Humidity 100    
Minimum Humidity 58    
Precipitation  
Precipitation 0.00 in - - ()
Sea Level Pressure  
Sea Level Pressure 30.29 in    
Wind  
Wind Speed 5 mph ()    
Max Wind Speed 13 mph    
Max Gust Speed -    
T = Trace of Precipitation, MM = Missing Value Source: Averaged Metar Reports

Daily Weather History Graph

Daily Weather History Graph

Search for Another Location

Airport or City:

Trip Planner

Search our weather history database for the weather conditions in past years. The results will help you decide how hot, cold, wet, or windy it might be!

Date:

Astronomy

Oct. 23, 2013 Rise Set
Actual Time 7:39 AM CST 5:50 PM CST
Civil Twilight 7:04 AM CST 6:24 PM CST
Nautical Twilight 6:26 AM CST 7:03 PM CST
Astronomical Twilight 5:47 AM CST 7:41 PM CST
Moon 9:06 PM CST (10/23) 12:16 PM CST (10/23)
Length of Visible Light 11h 19m
Length of Day
10h 11m
Waning Gibbous, 79% of the Moon is Illuminated
Oct 23
Waning Gibbous
Oct 26
Last Quarter
Nov 3
New
Nov 9
First Quarter
Nov 17
Full

Hourly Weather History & Observations

Time (CST) Temp. Windchill Dew Point Humidity Pressure Visibility Wind Dir Wind Speed Gust Speed Precip Events Conditions
12:00 AM 34.5 °F - 34.0 °F 98% 30.16 in - ENE 2.3 mph - N/A   Unknown
1:00 AM 34.3 °F - 33.8 °F 98% 30.16 in - Calm Calm - N/A   Unknown
2:00 AM 34.2 °F - 34.0 °F 99% 30.17 in - WNW 1.2 mph - N/A   Unknown
3:00 AM 34.3 °F - 34.3 °F 100% 30.18 in - NW 2.3 mph - N/A   Unknown
4:00 AM 34.7 °F 30.6 °F 34.3 °F 99% 30.21 in - North 4.6 mph - N/A   Unknown
5:00 AM 34.7 °F 30.6 °F 34.2 °F 98% 30.22 in - North 4.6 mph - N/A   Unknown
6:00 AM 33 °F - 32 °F 94% 30.25 in - NNW 4.6 mph - -  
6:00 AM 32.5 °F 28.1 °F 32.0 °F 98% 30.25 in - North 4.6 mph - N/A   Unknown
7:00 AM 30.9 °F 25.2 °F 30.7 °F 99% 30.27 in - North 5.8 mph - N/A   Unknown
8:00 AM 28.6 °F 21.5 °F 28.2 °F 99% 30.29 in - NNW 6.9 mph - N/A   Unknown
9:00 AM 32.2 °F 26.7 °F 31.5 °F 97% 30.30 in - NNW 5.8 mph - N/A   Unknown
10:00 AM 34.5 °F 29.4 °F 32.4 °F 92% 30.31 in - NNW 5.8 mph - N/A   Unknown
11:00 AM 34.7 °F 28.1 °F 31.3 °F 87% 30.32 in - NW 8.1 mph - N/A   Unknown
12:00 PM 38 °F - 32 °F 72% 30.32 in - NW 9.2 mph - -  
12:00 PM 38.3 °F 31.9 °F 32.2 °F 79% 30.32 in - NW 9.2 mph - N/A   Unknown
1:00 PM 39.0 °F 32.3 °F 29.5 °F 69% 30.32 in - NNW 10.4 mph - N/A   Unknown
2:00 PM 41.2 °F 35.0 °F 28.9 °F 62% 30.32 in - NNW 10.4 mph - N/A   Unknown
3:00 PM 41.7 °F 34.8 °F 28.0 °F 58% 30.31 in - NW 12.7 mph - N/A   Unknown
4:00 PM 42.1 °F 36.6 °F 29.1 °F 60% 30.31 in - NW 9.2 mph - N/A   Unknown
5:00 PM 40.6 °F 34.8 °F 30.0 °F 66% 30.32 in - NW 9.2 mph - N/A   Unknown
6:00 PM 33 °F - 28 °F 73% 30.33 in - WNW 5.8 mph - -  
6:00 PM 32.7 °F 27.3 °F 27.7 °F 82% 30.33 in - WNW 5.8 mph - N/A   Unknown
7:00 PM 28.2 °F 21.0 °F 26.2 °F 92% 30.35 in - WNW 6.9 mph - N/A   Unknown
8:00 PM 26.8 °F 18.5 °F 25.2 °F 94% 30.34 in - WNW 8.1 mph - N/A   Unknown
9:00 PM 27.0 °F 21.6 °F 25.2 °F 93% 30.35 in - NNW 4.6 mph - N/A   Unknown
10:00 PM 25.5 °F 18.7 °F 24.6 °F 96% 30.36 in - North 5.8 mph - N/A   Unknown
11:00 PM 21.6 °F 13.0 °F 21.0 °F 98% 30.38 in - WNW 6.9 mph - N/A   Unknown